{"data":{"norad_id":62493,"intl_designator":"2025-003G","name":"STARLINK-32731","alt_names":[],"object_type":"PAYLOAD","status":"ACTIVE","operator":null,"country":"US","launch_date":"2025-01-06","launch_site_code":"AFETR","launch_vehicle":null,"mission":null,"orbit_class":"UNKNOWN","rcs_meters":null,"size_class":null,"mass_kg":null,"dimensions":null,"purposes":["comms"],"wikipedia_slug":null,"has_3d_model":false,"image_url":null,"decayed_at":null,"tle_current":{"epoch":"2026-05-24T21:45:25.057728Z","epoch_age_seconds":77106,"freshness":"FRESH","line1":"1 62493U 25003G   26144.90654002  .00004021  00000+0  15549-3 0  9990","line2":"2 62493  42.9998 218.9059 0000918 304.6630  55.4135 15.27595984 78329","mean_motion":15.27595984,"eccentricity":9.18e-5,"inclination_deg":42.9998,"raan_deg":218.9059,"arg_perigee_deg":304.663,"mean_anomaly_deg":55.4135,"bstar":0.00015549,"rev_number":7832,"period_min":94.265762353562,"perigee_km":482.37138212084,"apogee_km":483.63108710071,"semimajor_km":6861.1382346108,"source":"CELESTRAK","updated_at":"2026-05-25T13:38:19.697366Z"}}}